sat.trackr.live / text

‹ back to catalog

TIANLIAN 2-03

NORAD 53100 · 2022-078A

PAYLOAD ACTIVE UNKNOWN

§ Identity

Operator
Country
PRC
Launch date
2022-07-12
Launch site
XICLF
Launch vehicle
Mass (kg)
RCS (m²)

Purposes: comms

External: N2YO · Heavens-Above · Gunter

§ Orbital elements

Epoch: 2026-05-25T03:47:39.471072Z

Period
1,436.09 min
Inclination
0.6132°
Eccentricity
0.0001914
Mean motion
1.00272458 rev/d
Perigee alt
35,778.3 km
Apogee alt
35,794.5 km
Semi-major
42,164.5 km
B*
0.0000e+0
RAAN
76.4845°
Arg perigee
307.5444°
Mean anomaly
286.2106°
Rev number
1,431

§ Raw data

TIANLIAN 2-031 53100U 22078A   26145.15809573  .00000070  00000+0  00000+0 0  99992 53100   0.6132  76.4845 0001914 307.5444 286.2106  1.00272458 14312

JSON: /api/v1/satellites/53100 · /tle

For live sub-satellite position, see the globe view (requires WebGL).

§ Visibility from observer

Set your observer location to see the next 7 days of passes ≥ 10°. The values pass through the URL so the page stays shareable.

No JS? Fill the form by hand. The geolocation button needs JavaScript.